Time,TemperatureF,DewpointF,PressureIn,WindDirection,WindDirectionDegrees,WindSpeedMPH,WindSpeedGustMPH,Humidity,HourlyPrecipIn,Conditions,Clouds,dailyrainin,SolarRadiationWatts/m^2,SoftwareType,DateUTC
2013-04-08 00:00:00,39.0,29.0,-100.00,NW,315,6.0,-999.0,65,-99.99,,,-99.99,0.000000,,2013-04-08 04:00:00,
2013-04-08 00:44:00,39.0,29.0,-100.00,NW,315,6.0,-999.0,65,-99.99,,,-99.99,0.000000,,2013-04-08 04:44:00,
2013-04-08 00:53:00,39.0,29.0,-100.00,NW,315,6.0,-999.0,65,-99.99,,,-99.99,0.000000,,2013-04-08 04:53:00,
2013-04-08 05:00:00,43.0,31.0,-100.00,North,0,9.0,-999.0,62,-99.99,,,-99.99,0.000000,,2013-04-08 09:00:00,
2013-04-08 05:43:00,43.0,31.0,-100.00,North,0,9.0,-999.0,62,-99.99,,,-99.99,0.000000,,2013-04-08 09:43:00,
2013-04-08 05:53:00,43.0,31.0,-100.00,North,0,9.0,-999.0,62,-99.99,,,-99.99,0.000000,,2013-04-08 09:53:00,
2013-04-08 06:00:00,44.0,31.0,-100.00,North,0,11.0,-999.0,60,-99.99,,,-99.99,0.000000,,2013-04-08 10:00:00,
2013-04-08 06:43:00,44.0,31.0,-100.00,North,0,11.0,-999.0,60,-99.99,,,-99.99,0.000000,,2013-04-08 10:43:00,
2013-04-08 06:53:00,44.0,31.0,-100.00,North,0,11.0,-999.0,60,-99.99,,,-99.99,0.000000,,2013-04-08 10:53:00,
2013-04-08 07:00:00,44.0,32.0,-100.00,North,0,11.0,-999.0,61,-99.99,,,-99.99,0.000000,,2013-04-08 11:00:00,
2013-04-08 07:43:00,44.0,32.0,-100.00,North,0,11.0,-999.0,61,-99.99,,,-99.99,0.000000,,2013-04-08 11:43:00,
2013-04-08 07:53:00,44.0,32.0,-100.00,North,0,11.0,-999.0,61,-99.99,,,-99.99,0.000000,,2013-04-08 11:53:00,
2013-04-08 08:00:00,44.0,33.0,-100.00,North,0,10.0,-999.0,63,-99.99,,,-99.99,4.640000,,2013-04-08 12:00:00,
2013-04-08 08:43:00,44.0,33.0,-100.00,North,0,10.0,-999.0,63,-99.99,,,-99.99,4.640000,,2013-04-08 12:43:00,
2013-04-08 08:53:00,44.0,33.0,-100.00,North,0,10.0,-999.0,63,-99.99,,,-99.99,4.640000,,2013-04-08 12:53:00,
2013-04-08 09:00:00,44.0,36.0,-100.00,North,0,10.0,-999.0,74,0.10,,,-99.99,9.280000,,2013-04-08 13:00:00,
2013-04-08 09:43:00,44.0,36.0,-100.00,North,0,10.0,-999.0,74,0.10,,,-99.99,9.280000,,2013-04-08 13:43:00,
2013-04-08 09:52:00,44.0,36.0,-100.00,North,0,10.0,-999.0,74,0.10,,,-99.99,9.280000,,2013-04-08 13:52:00,
2013-04-08 10:00:00,43.0,40.0,-100.00,North,0,11.0,-999.0,86,0.08,,,-99.99,11.600000,,2013-04-08 14:00:00,
2013-04-08 10:33:00,43.0,40.0,-100.00,North,0,11.0,-999.0,86,0.08,,,-99.99,11.600000,,2013-04-08 14:33:00,
2013-04-08 10:43:00,43.0,40.0,-100.00,North,0,11.0,-999.0,86,0.08,,,-99.99,11.600000,,2013-04-08 14:43:00,
2013-04-08 10:52:00,43.0,40.0,-100.00,North,0,11.0,-999.0,86,0.08,,,-99.99,11.600000,,2013-04-08 14:52:00,
2013-04-08 11:00:00,46.0,43.0,-100.00,NNE,22,12.0,-999.0,87,0.04,,,-99.99,93.959999,,2013-04-08 15:00:00,
2013-04-08 11:43:00,46.0,43.0,-100.00,NNE,22,12.0,-999.0,87,0.04,,,-99.99,93.959999,,2013-04-08 15:43:00,
2013-04-08 11:53:00,46.0,43.0,-100.00,NNE,22,12.0,-999.0,87,0.04,,,-99.99,93.959999,,2013-04-08 15:53:00,
2013-04-08 13:00:00,58.0,51.0,-100.00,NE,45,12.0,-999.0,77,-99.99,,,-99.99,259.839996,,2013-04-08 17:00:00,
2013-04-08 13:45:00,58.0,51.0,-100.00,NE,45,12.0,-999.0,77,-99.99,,,-99.99,259.839996,,2013-04-08 17:45:00,
2013-04-08 13:52:00,58.0,51.0,-100.00,NE,45,12.0,-999.0,77,-99.99,,,-99.99,259.839996,,2013-04-08 17:52:00,
2013-04-08 14:00:00,63.0,49.0,-100.00,ESE,112,17.0,-999.0,61,-99.99,,,-99.99,215.759995,,2013-04-08 18:00:00,
2013-04-08 14:42:00,63.0,49.0,-100.00,ESE,112,17.0,-999.0,61,-99.99,,,-99.99,215.759995,,2013-04-08 18:42:00,
2013-04-08 14:52:00,63.0,49.0,-100.00,ESE,112,17.0,-999.0,61,-99.99,,,-99.99,215.759995,,2013-04-08 18:52:00,
2013-04-08 15:00:00,61.0,47.0,-100.00,SE,135,18.0,-999.0,61,-99.99,,,-99.99,323.640015,,2013-04-08 19:00:00,
2013-04-08 15:43:00,61.0,47.0,-100.00,SE,135,18.0,-999.0,61,-99.99,,,-99.99,323.640015,,2013-04-08 19:43:00,
2013-04-08 15:52:00,61.0,47.0,-100.00,SE,135,18.0,-999.0,61,-99.99,,,-99.99,323.640015,,2013-04-08 19:52:00,
2013-04-08 16:00:00,59.0,46.0,-100.00,SSE,157,20.0,-999.0,62,-99.99,,,-99.99,564.919983,,2013-04-08 20:00:00,
2013-04-08 16:43:00,59.0,46.0,-100.00,SSE,157,20.0,-999.0,62,-99.99,,,-99.99,564.919983,,2013-04-08 20:43:00,
2013-04-08 16:52:00,59.0,46.0,-100.00,SSE,157,20.0,-999.0,62,-99.99,,,-99.99,564.919983,,2013-04-08 20:52:00,
2013-04-08 17:00:00,52.0,43.0,-100.00,South,180,15.0,-999.0,70,-99.99,,,-99.99,512.719971,,2013-04-08 21:00:00,
2013-04-08 17:43:00,52.0,43.0,-100.00,South,180,15.0,-999.0,70,-99.99,,,-99.99,512.719971,,2013-04-08 21:43:00,
2013-04-08 17:53:00,52.0,43.0,-100.00,South,180,15.0,-999.0,70,-99.99,,,-99.99,512.719971,,2013-04-08 21:53:00,
2013-04-08 19:00:00,44.0,37.0,-100.00,South,180,9.0,-999.0,77,-99.99,,,-99.99,200.679993,,2013-04-08 23:00:00,
2013-04-08 19:43:00,44.0,37.0,-100.00,South,180,9.0,-999.0,77,-99.99,,,-99.99,200.679993,,2013-04-08 23:43:00,
2013-04-08 19:52:00,44.0,37.0,-100.00,South,180,9.0,-999.0,77,-99.99,,,-99.99,200.679993,,2013-04-08 23:52:00,
2013-04-08 21:00:00,39.0,36.0,-100.00,SW,225,5.0,-999.0,86,-99.99,,,-99.99,2.320000,,2013-04-09 01:00:00,
2013-04-08 21:42:00,39.0,36.0,-100.00,SW,225,5.0,-999.0,86,-99.99,,,-99.99,2.320000,,2013-04-09 01:42:00,
2013-04-08 21:52:00,39.0,36.0,-100.00,SW,225,5.0,-999.0,86,-99.99,,,-99.99,2.320000,,2013-04-09 01:52:00,
2013-04-08 22:00:00,38.0,36.0,-100.00,WSW,247,4.0,-999.0,88,-99.99,,,-99.99,0.000000,,2013-04-09 02:00:00,
2013-04-08 22:44:00,38.0,36.0,-100.00,WSW,247,4.0,-999.0,88,-99.99,,,-99.99,0.000000,,2013-04-09 02:44:00,
2013-04-08 22:52:00,38.0,36.0,-100.00,WSW,247,4.0,-999.0,88,-99.99,,,-99.99,0.000000,,2013-04-09 02:52:00,
2013-04-08 23:00:00,39.0,36.0,-100.00,West,270,5.0,-999.0,90,-99.99,,,-99.99,0.000000,,2013-04-09 03:00:00,
2013-04-08 23:43:00,39.0,36.0,-100.00,West,270,5.0,-999.0,90,-99.99,,,-99.99,0.000000,,2013-04-09 03:43:00,
2013-04-08 23:53:00,39.0,36.0,-100.00,West,270,5.0,-999.0,90,-99.99,,,-99.99,0.000000,,2013-04-09 03:53:00,